Weather History for Pampa, TX

Change the Weather History Date:

Sunday, February 10, 2013

  Actual Average Record
Temperature  
Mean Temperature 39 °F -  
Max Temperature 50 °F 50 °F 82 °F (1976)
Min Temperature 26 °F 23 °F -2 °F (2011)
Degree Days  
Heating Degree Days 26    
Moisture  
Dew Point 14 °F    
Average Humidity 38    
Maximum Humidity 59    
Minimum Humidity 22    
Precipitation  
Precipitation 0.00 in - - ()
Sea Level Pressure  
Sea Level Pressure 29.81 in    
Wind  
Wind Speed 17 mph (NW)    
Max Wind Speed 28 mph    
Max Gust Speed 37 mph    
Visibility 10 miles    
Events      
Averages and records for this station are not official NWS values.
T = Trace of Precipitation, MM = Missing Value Source: NWS Daily Summary

Daily Weather History Graph

Daily Weather History Graph

Search for Another Location

Airport:

Trip Planner

Search our weather history database for the weather conditions in past years. The results will help you decide how hot, cold, wet, or windy it might be!

Date:

Astronomy

Feb. 10, 2013 Rise Set
Actual Time 7:35 AM CST 6:21 PM CST
Civil Twilight 7:09 AM CST 6:47 PM CST
Nautical Twilight 6:39 AM CST 7:17 PM CST
Astronomical Twilight 6:09 AM CST 7:47 PM CST
Moon 7:29 AM CST (2/10) 7:10 PM CST (2/10)
Length of Visible Light 11h 38m
Length of Day
10h 45m
New Moon, 0% of the Moon is Illuminated
Feb 10
New Moon
Feb 17
First Quarter
Feb 25
Full
Mar 4
Last Quarter
Mar 11
New

Hourly Weather History & Observations

Time (CST) Temp. Windchill Dew Point Humidity Pressure Visibility Wind Dir Wind Speed Gust Speed Precip Events Conditions
12:35 AM 37.4 °F 27.2 °F 8.6 °F 30% 29.64 in 10.0 mi WSW 19.6 mph 24.2 mph N/A   Clear
12:55 AM 39.2 °F 29.6 °F 8.6 °F 28% 29.64 in 10.0 mi WSW 19.6 mph - N/A   Clear
1:15 AM 39.2 °F 28.7 °F 10.4 °F 31% 29.64 in 10.0 mi WSW 23.0 mph 31.1 mph N/A   Clear
1:35 AM 41.0 °F 30.5 °F 10.4 °F 29% 29.63 in 10.0 mi West 26.5 mph 35.7 mph N/A   Clear
1:55 AM 41.0 °F 30.2 °F 10.4 °F 29% 29.63 in 10.0 mi West 27.6 mph 35.7 mph N/A   Clear
2:15 AM 41.0 °F 30.2 °F 12.2 °F 31% 29.63 in 10.0 mi West 27.6 mph 36.8 mph N/A   Clear
2:35 AM 41.0 °F 30.2 °F 12.2 °F 31% 29.63 in 10.0 mi West 27.6 mph 36.8 mph N/A   Clear
2:55 AM 39.2 °F 27.8 °F 12.2 °F 33% 29.62 in 10.0 mi West 27.6 mph 35.7 mph N/A   Clear
3:15 AM 39.2 °F 28.0 °F 12.2 °F 33% 29.63 in 10.0 mi West 26.5 mph 33.4 mph N/A   Clear
3:35 AM 39.2 °F 28.5 °F 12.2 °F 33% 29.63 in 10.0 mi West 24.2 mph 32.2 mph N/A   Clear
3:55 AM 37.4 °F 26.1 °F 12.2 °F 36% 29.62 in 10.0 mi West 24.2 mph 33.4 mph N/A   Clear
4:15 AM 37.4 °F 26.1 °F 12.2 °F 36% 29.63 in 10.0 mi West 24.2 mph 32.2 mph N/A   Clear
4:35 AM 37.4 °F 26.4 °F 14.0 °F 38% 29.63 in 10.0 mi West 23.0 mph 33.4 mph N/A   Clear
4:55 AM 37.4 °F 26.6 °F 14.0 °F 38% 29.64 in 10.0 mi West 21.9 mph 28.8 mph N/A   Clear
5:15 AM 37.4 °F 27.2 °F 14.0 °F 38% 29.65 in 10.0 mi West 19.6 mph - N/A   Clear
5:35 AM 35.6 °F 27.1 °F 14.0 °F 41% 29.67 in 10.0 mi West 12.7 mph - N/A   Clear
5:55 AM 33.8 °F 26.4 °F 14.0 °F 44% 29.68 in 10.0 mi West 9.2 mph - N/A   Clear
6:15 AM 32.0 °F 24.2 °F 14.0 °F 48% 29.69 in 10.0 mi West 9.2 mph - N/A   Clear
6:35 AM 32.0 °F 24.8 °F 14.0 °F 48% 29.70 in 10.0 mi West 8.1 mph - N/A   Clear
6:55 AM 32.0 °F 26.4 °F 14.0 °F 48% 29.70 in 10.0 mi West 5.8 mph - N/A   Clear
7:15 AM 30.2 °F 21.9 °F 14.0 °F 51% 29.71 in 10.0 mi West 9.2 mph - N/A   Clear
7:35 AM 30.2 °F 21.9 °F 14.0 °F 51% 29.72 in 10.0 mi West 9.2 mph - N/A   Clear
7:55 AM 28.4 °F 21.2 °F 14.0 °F 55% 29.73 in 10.0 mi West 6.9 mph - N/A   Clear
8:15 AM 30.2 °F 22.6 °F 15.8 °F 55% 29.74 in 10.0 mi West 8.1 mph - N/A   Clear
8:35 AM 33.8 °F 27.0 °F 17.6 °F 52% 29.75 in 10.0 mi West 8.1 mph - N/A   Clear
8:55 AM 37.4 °F 29.3 °F 17.6 °F 45% 29.76 in 10.0 mi WNW 12.7 mph - N/A   Clear
9:15 AM 37.4 °F 29.3 °F 17.6 °F 45% 29.78 in 10.0 mi NW 12.7 mph - N/A   Clear
9:35 AM 39.2 °F 30.2 °F 15.8 °F 39% 29.79 in 10.0 mi WNW 17.3 mph - N/A   Clear
9:55 AM 41.0 °F 32.5 °F 15.8 °F 36% 29.79 in 10.0 mi WNW 17.3 mph 25.3 mph N/A   Clear
10:15 AM 41.0 °F 32.8 °F 14.0 °F 33% 29.80 in 10.0 mi NW 16.1 mph 20.7 mph N/A   Clear
10:35 AM 42.8 °F 35.1 °F 14.0 °F 31% 29.80 in 10.0 mi NW 16.1 mph 20.7 mph N/A   Clear
10:55 AM 44.6 °F 38.1 °F 15.8 °F 31% 29.81 in 10.0 mi NW 13.8 mph 18.4 mph N/A   Clear
11:15 AM 44.6 °F 39.7 °F 15.8 °F 31% 29.81 in 10.0 mi NW 9.2 mph 18.4 mph N/A   Clear
11:35 AM 44.6 °F 38.8 °F 19.4 °F 37% 29.83 in 10.0 mi NNW 11.5 mph 16.1 mph N/A   Clear
11:55 AM 46.4 °F 41.9 °F 19.4 °F 34% 29.83 in 10.0 mi NNW 9.2 mph 18.4 mph N/A   Clear
12:15 PM 46.4 °F 41.5 °F 19.4 °F 34% 29.83 in 10.0 mi NW 10.4 mph 19.6 mph N/A   Clear
12:35 PM 46.4 °F 40.7 °F 19.4 °F 34% 29.83 in 10.0 mi NW 12.7 mph 18.4 mph N/A   Clear
12:55 PM 50.0 °F - 19.4 °F 30% 29.83 in 10.0 mi NW 16.1 mph 21.9 mph N/A   Clear
1:15 PM 50.0 °F - 19.4 °F 30% 29.82 in 10.0 mi NW 18.4 mph 23.0 mph N/A   Clear
1:35 PM 50.0 °F - 19.4 °F 30% 29.82 in 10.0 mi NW 12.7 mph 19.6 mph N/A   Clear
1:55 PM 50.0 °F - 17.6 °F 28% 29.82 in 10.0 mi NW 12.7 mph 23.0 mph N/A   Clear
2:15 PM 50.0 °F - 17.6 °F 28% 29.82 in 10.0 mi NW 19.6 mph 24.2 mph N/A   Clear
2:35 PM 50.0 °F - 15.8 °F 26% 29.82 in 10.0 mi NNW 13.8 mph 24.2 mph N/A   Clear
3:15 PM 50.0 °F - 14.0 °F 24% 29.84 in 10.0 mi NNW 16.1 mph 24.2 mph N/A   Clear
3:35 PM 50.0 °F - 12.2 °F 22% 29.84 in 10.0 mi North 12.7 mph 21.9 mph N/A   Clear
3:55 PM 50.0 °F - 14.0 °F 24% 29.85 in 10.0 mi NNW 15.0 mph 23.0 mph N/A   Clear
4:15 PM 50.0 °F - 12.2 °F 22% 29.86 in 10.0 mi NW 13.8 mph 21.9 mph N/A   Clear
4:35 PM 50.0 °F - 12.2 °F 22% 29.87 in 10.0 mi NNW 13.8 mph 21.9 mph N/A   Clear
4:55 PM 50.0 °F - 12.2 °F 22% 29.87 in 10.0 mi North 13.8 mph 19.6 mph N/A   Clear
5:15 PM 48.2 °F - 12.2 °F 24% 29.89 in 10.0 mi North 9.2 mph - N/A   Clear
5:35 PM 46.4 °F 40.7 °F 12.2 °F 25% 29.89 in 10.0 mi North 12.7 mph - N/A   Clear
5:55 PM 44.6 °F 39.7 °F 14.0 °F 29% 29.91 in 10.0 mi North 9.2 mph - N/A   Clear
6:15 PM 42.8 °F 38.6 °F 12.2 °F 29% 29.92 in 10.0 mi NNE 6.9 mph - N/A   Clear
6:35 PM 37.4 °F 32.8 °F 14.0 °F 38% 29.92 in 10.0 mi NNE 5.8 mph - N/A   Clear
6:55 PM 35.6 °F 29.9 °F 12.2 °F 38% 29.93 in 10.0 mi NE 6.9 mph - N/A   Clear
7:15 PM 33.8 °F 27.0 °F 12.2 °F 41% 29.94 in 10.0 mi NNE 8.1 mph - N/A   Clear
7:35 PM 32.0 °F 24.8 °F 12.2 °F 44% 29.96 in 10.0 mi NE 8.1 mph - N/A   Clear
7:55 PM 32.0 °F 26.4 °F 14.0 °F 48% 29.96 in 10.0 mi NE 5.8 mph - N/A   Clear
8:15 PM 32.0 °F 26.4 °F 12.2 °F 44% 29.97 in 10.0 mi NE 5.8 mph - N/A   Clear
8:35 PM 32.0 °F 24.8 °F 14.0 °F 48% 29.98 in 10.0 mi NE 8.1 mph - N/A   Clear
8:55 PM 32.0 °F 24.8 °F 14.0 °F 48% 29.99 in 10.0 mi NE 8.1 mph - N/A   Clear
9:15 PM 32.0 °F 24.8 °F 14.0 °F 48% 30.00 in 10.0 mi ENE 8.1 mph - N/A   Clear
9:35 PM 32.0 °F 24.8 °F 14.0 °F 48% 30.00 in 10.0 mi ENE 8.1 mph - N/A   Clear
9:55 PM 30.2 °F 23.4 °F 14.0 °F 51% 30.01 in 10.0 mi ENE 6.9 mph - N/A   Clear
10:15 PM 30.2 °F 23.4 °F 14.0 °F 51% 30.02 in 10.0 mi East 6.9 mph - N/A   Clear
10:35 PM 30.2 °F 24.3 °F 14.0 °F 51% 30.03 in 10.0 mi East 5.8 mph - N/A   Clear
10:55 PM 30.2 °F 23.4 °F 14.0 °F 51% 30.03 in 10.0 mi East 6.9 mph - N/A   Clear
11:15 PM 28.4 °F 19.7 °F 14.0 °F 55% 30.03 in 10.0 mi ENE 9.2 mph - N/A   Clear
11:35 PM 28.4 °F 19.7 °F 14.0 °F 55% 30.04 in 10.0 mi ENE 9.2 mph - N/A   Clear
11:55 PM 26.6 °F 17.5 °F 14.0 °F 59% 30.05 in 10.0 mi East 9.2 mph - N/A   Clear